Tiempo atmosférico en la estación meteorológica de Linares, Jaén (515 m.)



Fecha
DESCASC
Temp. máxima en grados centígrados (hora)
DESCASC
Temp. mínima en grados centígrados (hora)
DESCASC
Temp. media en grados centígrados
DESCASC
Racha de viento máxima en m/sg (hora)
DESCASC
Velocidad máxima media en intervalos de 10 minutos(hora)
DESCASC
Precipitaciones diarias en mm
DESCASC
Precipitaciones de 00:00 a 06:00 en mm
DESCASC
Precipitaciones de 06:00 a 12:00 en mm
DESCASC
Precipitaciones de 12:00 a 18:00 en mm
DESCASC
Precipitaciones de 18:00 a 24:00 en mm
DESCASC
08-12-2019 13.7 (15:40) 5 (06:20) 9.3 4.17 (14:40) 2.22 (01:10) 0 0 0 0 0
07-12-2019 15.2 (15:40) 6.9 (08:30) 11 4.17 (09:40) 1.94 (06:20) 0 0 0 0 0
06-12-2019 15.8 (15:50) 7.7 (05:30) 11.8 6.11 (01:30) 3.06 (01:30) 0 0 0 0 0
05-12-2019 13.7 (16:00) 8 (00:00) 10.8 5.83 (11:30) 1.94 (18:30) 0 0 0 0 0
04-12-2019 13.5 (15:10) 5.8 (00:00) 9.7 5 (01:10) 2.22 (02:10) 0.4 0 0 0 0.4
03-12-2019 14.3 (14:10) 7.8 (00:00) 11.1 8.89 (12:50) 3.89 (00:30) 0 0 0 0 0
02-12-2019 14 (14:20) 7.5 (00:00) 10.8 9.72 (18:50) 4.72 (22:00) 0.4 0.2 0.2 0 0
01-12-2019 12.1 (01:20) 7 (00:00) 9.6 6.67 (03:10) 3.33 (03:20) 10.2 3 0 1.4 5.8
30-11-2019 17.8 (16:10) 8.8 (00:00) 13.3 5 (18:20) 2.78 (08:20) 0 0 0 0 0
29-11-2019 -- (--) -- (--) -- -- (--) 1.67 (16:10) 0 0 0 0 0
28-11-2019 -- (--) -- (--) -- 4.72 (14:10) 2.5 (14:10) 0 0 0 0 0
27-11-2019 -- (--) -- (--) -- 10 (03:50) 4.17 (03:50) 3.6 2 1.6 0 0
26-11-2019 -- (--) -- (--) -- 8.06 (22:50) 3.06 (21:10) 0.6 0.2 0 0 0.4
25-11-2019 -- (--) -- (--) -- -- (--) -- (--) 5.6 0.6 3.6 1.2 0.2
24-11-2019 12.1 (16:20) 4.5 (00:00) 8.3 6.11 (12:40) 2.22 (12:40) 0 0 0 0 0
23-11-2019 -- (--) -- (--) -- 17.22 (03:30) 7.5 (03:30) 8.8 8.8 0 0 0
22-11-2019 13.8 (19:10) 10.2 (00:00) 12 11.39 (18:50) 5.83 (19:00) 61.6 1.4 1.4 49.6 9.2
21-11-2019 10.4 (13:40) 7.2 (00:00) 8.8 3.89 (04:00) 1.67 (18:40) 13.8 1 2.2 10 0.6
20-11-2019 9.1 (12:40) 3.9 (00:00) 6.5 3.61 (13:00) 1.94 (13:20) 1.8 0 0 0.2 1.6
19-11-2019 11.4 (14:50) 3.6 (00:00) 7.5 3.61 (10:10) 1.67 (04:10) 0 0 0 0 0
18-11-2019 12 (15:50) 6.5 (00:00) 9.3 8.33 (00:30) 3.61 (00:30) 2.4 2.4 0 0 0
17-11-2019 7.4 (23:20) 2.7 (00:00) 5.1 6.11 (12:30) 2.78 (23:50) 14.2 0 0.2 4.4 9.6
16-11-2019 11.3 (15:40) 1.4 (00:00) 6.4 5 (15:20) 1.67 (12:30) 0 0 0 0 0
15-11-2019 8.7 (14:50) 3.9 (00:00) 6.3 9.44 (03:40) 4.72 (00:20) 0 0 0 0 0
14-11-2019 11.5 (00:00) 7.6 (00:00) 9.5 11.39 (12:20) 5.56 (17:20) 4.4 0 2 2.4 0
13-11-2019 15.7 (17:20) 9 (00:00) 12.3 11.11 (11:40) 5.28 (11:30) 1.6 0 1.6 0 0
12-11-2019 15.4 (16:10) 6.5 (00:00) 10.9 5.56 (20:20) 2.22 (16:40) 0 0 0 0 0
11-11-2019 11.1 (15:30) 5.6 (06:00) 8.4 6.11 (00:10) 2.78 (00:10) 0 0 0 0 0

Gráficas

Temp. máximas Temp. mínimas Temp. medias Precipitaciones Rachas de viento máximas Velocidades máximas media en intervalos de 10 minutos

Datos horarios

Fecha y hora oficial Temperatura (ºC) Velocidad del viento (km/h) Dirección del viento Racha (km/h) Dirección de racha Precipitación (mm) Presión (hPa) Tendencia (hPa) Humedad (%)
2019-12-10 23:00:00 9.1 5 Sudeste 9 Sudeste 0 -- -- 63
2019-12-10 22:00:00 9.4 5 Sudeste 10 Sudeste 0 -- -- 62
2019-12-10 21:00:00 9.9 2 Sudeste 7 Sudeste 0 -- -- 61
2019-12-10 20:00:00 11.1 0 Calma 6 Sudeste 0 -- -- 59
2019-12-10 19:00:00 11.6 0 Calma 4 Sur 0 -- -- 57
2019-12-10 18:00:00 12.4 2 Sur 5 Sudoeste 0 -- -- 58
2019-12-10 17:00:00 16.3 0 Calma 8 Oeste 0 -- -- 47
2019-12-10 16:00:00 16.5 2 Sudeste 6 Sudeste 0 -- -- 44
2019-12-10 15:00:00 15.3 3 Este 12 Nordeste 0 -- -- 47
2019-12-10 14:00:00 14.2 5 Nordeste 21 Nordeste 0 -- -- 47
2019-12-10 13:00:00 12.4 7 Nordeste 17 Nordeste 0 -- -- 50
2019-12-10 12:00:00 9.9 4 Este 23 Sudeste 0 -- -- 64
2019-12-10 11:00:00 8.1 7 Sudeste 20 Sudeste 0 -- -- 71
2019-12-10 10:00:00 6 4 Este 18 Sur 0 -- -- 82
2019-12-10 09:00:00 5.3 4 Este 10 Sudeste 0 -- -- 85
2019-12-10 08:00:00 6.3 4 Este 8 Nordeste 0 -- -- 79
2019-12-10 07:00:00 5.7 3 Este 15 Sudeste 0 -- -- 89
2019-12-10 06:00:00 6.1 4 Este 13 Este 0 -- -- 91
2019-12-10 05:00:00 7.8 4 Este 13 Nordeste 0 -- -- 84
2019-12-10 04:00:00 7.9 5 Este 12 Nordeste 0 -- -- 86
2019-12-10 03:00:00 8.3 4 Este 14 Sudeste 0 -- -- 86
2019-12-10 02:00:00 8.2 4 Este 13 Sudeste 0 -- -- 87
2019-12-10 01:00:00 9.4 4 Sudeste 11 Este 0 -- -- 83
2019-12-10 00:00:00 9.9 3 Sudeste 9 Sudeste 0 -- -- 84
2019-12-09 23:00:00 10.3 2 Este 6 Sudeste 0 -- -- 82
2019-12-09 22:00:00 10.4 0 Calma 8 Sudeste 0 -- -- 83
2019-12-09 21:00:00 11.1 2 Nordeste 5 Nordeste 0 -- -- 76
2019-12-09 20:00:00 11.5 0 Calma 5 Oeste 0 -- -- 75
2019-12-09 19:00:00 11.6 0 Calma 5 Oeste 0 -- -- 78
2019-12-09 18:00:00 12.7 0 Calma 4 Noroeste 0 -- -- 73
2019-12-09 17:00:00 14.8 0 Calma 5 Sudeste 0 -- -- 60
2019-12-09 16:00:00 14.6 0 Calma 8 Sudeste 0 -- -- 66
2019-12-09 15:00:00 14.7 2 Sudeste 7 Noroeste 0 -- -- 67
2019-12-09 14:00:00 13.8 3 Noroeste 9 Sudeste 0 -- -- 73
2019-12-09 13:00:00 12.5 3 Sudeste 10 Sudeste 0 -- -- 77
2019-12-09 12:00:00 11.7 4 Sudeste 10 Nordeste 0 -- -- 81
2019-12-09 11:00:00 10.8 5 Nordeste 10 Nordeste 0 -- -- 83
2019-12-09 10:00:00 9.9 4 Este 9 Nordeste 0 -- -- 87
2019-12-09 09:00:00 9.4 0 Calma 6 Nordeste 0 -- -- 88
2019-12-09 08:00:00 9 5 Sudeste 10 Sudeste 0 -- -- 91
2019-12-09 07:00:00 9.7 4 Sudeste 8 Sudeste 0 -- -- 88
2019-12-09 06:00:00 9.6 0 Calma 5 Nordeste 0 -- -- 88
2019-12-09 05:00:00 9.6 0 Calma 3 Oeste 0 -- -- 87
2019-12-09 04:00:00 9.2 0 Calma 5 Noroeste 0 -- -- 88
2019-12-09 03:00:00 9.7 0 Calma 4 Norte 0 -- -- 88
2019-12-09 02:00:00 9.9 3 Noroeste 6 Oeste 0 -- -- 85
2019-12-09 01:00:00 10 0 Calma 4 Sur 0 -- -- 83
2019-12-09 00:00:00 10.3 0 Calma 6 Oeste 0 -- -- 81
2019-12-08 23:00:00 10.2 0 Calma 7 Oeste 0 -- -- 83
2019-12-08 22:00:00 10.4 2 Sudoeste 10 Oeste 0 -- -- 80
2019-12-08 21:00:00 10.8 5 Sur 12 Sur 0 -- -- 77
2019-12-08 20:00:00 10.8 3 Sur 8 Sur 0 -- -- 75
2019-12-08 19:00:00 11.2 0 Calma 9 Oeste 0 -- -- 71
2019-12-08 18:00:00 11.7 0 Calma 6 Noroeste 0 -- -- 69
2019-12-08 17:00:00 12.9 4 Oeste 11 Oeste 0 -- -- 66
2019-12-08 16:00:00 13.5 3 Sudoeste 13 Oeste 0 -- -- 64
2019-12-08 15:00:00 13.6 5 Oeste 15 Oeste 0 -- -- 65
2019-12-08 14:00:00 13.1 5 Oeste 9 Oeste 0 -- -- 68
2019-12-08 13:00:00 10.8 3 Sudoeste 9 Noroeste 0 -- -- 75
2019-12-08 12:00:00 9.3 3 Este 12 Sudeste 0 -- -- 79
2019-12-08 11:00:00 8.3 2 Este 7 Sudeste 0 -- -- 82
2019-12-08 10:00:00 7.2 0 Calma 8 Sudeste 0 -- -- 85
2019-12-08 09:00:00 5.3 6 Sudeste 9 Sudeste 0 -- -- 90
2019-12-08 08:00:00 5.1 3 Sudeste 8 Sudeste 0 -- -- 89
2019-12-08 07:00:00 5.3 5 Sudeste 9 Sudeste 0 -- -- 90
2019-12-08 06:00:00 5.5 5 Sudeste 7 Sudeste 0 -- -- 86
2019-12-08 05:00:00 5.8 4 Sudeste 10 Sudeste 0 -- -- 86
2019-12-08 04:00:00 6.1 6 Sudeste 9 Sudeste 0 -- -- 85
2019-12-08 03:00:00 6.6 4 Sudeste 9 Sudeste 0 -- -- 86
2019-12-08 02:00:00 6.5 4 Sudeste 13 Sudeste 0 -- -- 83
2019-12-08 01:00:00 7.3 7 Sudeste 10 Sudeste 0 -- -- 80
2019-12-08 00:00:00 7.8 2 Sudeste 9 Sudeste 0 -- -- 78
2019-12-07 23:00:00 8 4 Sudeste 10 Sudeste 0 -- -- 79
2019-12-07 22:00:00 8.4 7 Sudeste 10 Sudeste 0 -- -- 78
2019-12-07 21:00:00 8.9 5 Sudeste 10 Sudeste 0 -- -- 78
2019-12-07 20:00:00 9.7 5 Sudeste 12 Sudeste 0 -- -- 76
2019-12-07 19:00:00 11.2 0 Calma -- -- 0 -- -- 65
2019-12-07 18:00:00 12 0 Calma 6 Oeste 0 -- -- 63
2019-12-07 17:00:00 14.3 3 Noroeste 8 Noroeste 0 -- -- 53
2019-12-07 16:00:00 15.2 3 Oeste 6 Oeste 0 -- -- 53
2019-12-07 15:00:00 14.5 4 Norte 9 Norte 0 -- -- 56
2019-12-07 14:00:00 14.5 3 Sudeste 10 Nordeste 0 -- -- 57
2019-12-07 13:00:00 12.2 3 Nordeste 9 Sudeste 0 -- -- 63
2019-12-07 12:00:00 11 3 Este 11 Sudeste 0 -- -- 69
2019-12-07 11:00:00 9.2 3 Este 15 Sudeste 0 -- -- 76
2019-12-07 10:00:00 7.9 4 Sudeste 15 Sudeste 0 -- -- 81
2019-12-07 09:00:00 7.8 4 Este 10 Este 0 -- -- 81
2019-12-07 08:00:00 7.1 3 Este 13 Sudeste 0 -- -- 83
2019-12-07 07:00:00 7 5 Sudeste 12 Sudeste 0 -- -- 85
2019-12-07 06:00:00 8.1 2 Este 12 Sudeste 0 -- -- 78
2019-12-07 05:00:00 9.1 2 Este 5 Sudeste 0 -- -- 73
2019-12-07 04:00:00 9.2 3 Este 5 Nordeste 0 -- -- 73
2019-12-07 03:00:00 9.5 3 Este 9 Sudeste 0 -- -- 73
2019-12-07 02:00:00 9.8 0 Calma 6 Nordeste 0 -- -- 72
2019-12-07 01:00:00 10 3 Este 14 Nordeste 0 -- -- 71
2019-12-07 00:00:00 10.4 4 Este 12 Nordeste 0 -- -- 71
2019-12-06 23:00:00 10.6 4 Este 9 Nordeste 0 -- -- 72
2019-12-06 22:00:00 10.7 0 Calma 6 Sudeste 0 -- -- 76
2019-12-06 21:00:00 11.3 0 Calma 8 Nordeste 0 -- -- 80
2019-12-06 20:00:00 12.3 4 Este 12 Nordeste 0 -- -- 75
2019-12-06 19:00:00 12.6 0 Calma 9 Nordeste 0 -- -- 73
2019-12-06 18:00:00 14 6 Nordeste 11 Nordeste 0 -- -- 66
2019-12-06 17:00:00 15.3 3 Sudeste 9 Sudeste 0 -- -- 56
2019-12-06 16:00:00 15.7 3 Este 12 Sudeste 0 -- -- 54
2019-12-06 15:00:00 15.4 5 Este 13 Sudeste 0 -- -- 55
2019-12-06 14:00:00 15.1 4 Este 13 Nordeste 0 -- -- 57
2019-12-06 13:00:00 13.7 4 Este 11 Nordeste 0 -- -- 61
2019-12-06 12:00:00 12.7 3 Este 12 Nordeste 0 -- -- 66
2019-12-06 11:00:00 11.2 4 Este 11 Este 0 -- -- 73
2019-12-06 10:00:00 10.2 4 Este 14 Nordeste 0 -- -- 74
2019-12-06 09:00:00 9 4 Este 10 Nordeste 0 -- -- 78
2019-12-06 08:00:00 8.8 2 Este 5 Este 0 -- -- 78
2019-12-06 07:00:00 8.3 3 Este 6 Este 0 -- -- 80
2019-12-06 06:00:00 8.1 3 Este 11 Sudeste 0 -- -- 81
2019-12-06 05:00:00 8.1 2 Este 9 Sudeste 0 -- -- 80
2019-12-06 04:00:00 8.4 3 Este 12 Sudeste 0 -- -- 77
2019-12-06 03:00:00 9.5 4 Este 13 Nordeste 0 -- -- 73
2019-12-06 02:00:00 9.5 3 Este 22 Nordeste 0 -- -- 71
2019-12-06 01:00:00 9.2 3 Este 13 Nordeste 0 -- -- 72
2019-12-06 00:00:00 8.9 4 Este 12 Nordeste 0 -- -- 74
2019-12-05 23:00:00 9.6 3 Este 5 Nordeste 0 -- -- 71
2019-12-05 22:00:00 9.6 3 Este 9 Sudeste 0 -- -- 72
2019-12-05 21:00:00 10.1 3 Este 13 Nordeste 0 -- -- 70
2019-12-05 20:00:00 10.9 4 Este 18 Nordeste 0 -- -- 68
2019-12-05 19:00:00 11.6 6 Este 15 Nordeste 0 -- -- 68
2019-12-05 18:00:00 12.3 4 Nordeste 12 Nordeste 0 -- -- 66
2019-12-05 17:00:00 13.3 5 Nordeste 11 Nordeste 0 -- -- 62
2019-12-05 16:00:00 13.7 3 Este 14 Nordeste 0 -- -- 63
2019-12-05 15:00:00 13.3 4 Este 17 Sudeste 0 -- -- 65
2019-12-05 14:00:00 12.8 5 Este 16 Sudeste 0 -- -- 66
2019-12-05 13:00:00 11.7 6 Sudeste 15 Sudeste 0 -- -- 76
2019-12-05 12:00:00 10.7 4 Este 21 Nordeste 0 -- -- 79
2019-12-05 11:00:00 9.5 5 Sudeste 14 Sudeste 0 -- -- 84
2019-12-05 10:00:00 9.3 4 Este 12 Este 0 -- -- 86
2019-12-05 09:00:00 8 4 Nordeste 11 Nordeste 0 -- -- 94
2019-12-05 08:00:00 8.1 6 Sudeste 11 Sudeste 0 -- -- 95
2019-12-05 07:00:00 8.2 5 Nordeste 10 Nordeste 0 -- -- 94
2019-12-05 06:00:00 8.5 0 Calma 2 Nordeste 0 -- -- 94
2019-12-05 05:00:00 8.6 0 Calma 3 Sur 0 -- -- 94
2019-12-05 04:00:00 8.5 0 Calma 5 Sudeste 0 -- -- 93
2019-12-05 03:00:00 8.6 0 Calma 4 Sur 0 -- -- 92
2019-12-05 02:00:00 8.5 0 Calma 3 Sur 0 -- -- 92
2019-12-05 01:00:00 8.6 0 Calma 5 Sur 0 -- -- 92
2019-12-05 00:00:00 8.7 3 Sudeste 6 Sudeste 0 -- -- 92
2019-12-04 23:00:00 8.8 0 Calma 3 Sur 0 -- -- 92
2019-12-04 22:00:00 8.8 0 Calma 3 Oeste 0 -- -- 90
2019-12-04 21:00:00 9 0 Calma 4 Sur 0 -- -- 90
2019-12-04 20:00:00 8.9 2 Sur 4 Sudeste 0 -- -- 91
2019-12-04 19:00:00 9.2 2 Sur 5 Sudeste 0.4 -- -- 89
2019-12-04 18:00:00 9.9 0 Calma 8 Nordeste 0 -- -- 84
2019-12-04 17:00:00 11.2 0 Calma 13 Oeste 0 -- -- 74
2019-12-04 16:00:00 12.5 5 Oeste 16 Oeste 0 -- -- 66
2019-12-04 15:00:00 13.2 5 Sudoeste 14 Oeste 0 -- -- 64
2019-12-04 14:00:00 11.3 5 Sudoeste 14 Noroeste 0 -- -- 70
2019-12-04 13:00:00 10 5 Oeste 12 Oeste 0 -- -- 74
2019-12-04 12:00:00 8.6 4 Oeste 7 Noroeste 0 -- -- 78
2019-12-04 11:00:00 7.6 4 Oeste 6 Oeste 0 -- -- 81
2019-12-04 10:00:00 7.2 0 Calma 5 Sur 0 -- -- 81
2019-12-04 09:00:00 6.9 3 Este 6 Nordeste 0 -- -- 82
2019-12-04 08:00:00 6.1 2 Este 9 Nordeste 0 -- -- 83
2019-12-04 07:00:00 6 2 Este 7 Este 0 -- -- 82
2019-12-04 06:00:00 6.2 2 Este 6 Sudeste 0 -- -- 82
2019-12-04 05:00:00 5.9 0 Calma 7 Nordeste 0 -- -- 83
2019-12-04 04:00:00 6.4 3 Este 10 Este 0 -- -- 80
2019-12-04 03:00:00 7 2 Este 11 Nordeste 0 -- -- 77
2019-12-04 02:00:00 7.2 7 Nordeste 18 Nordeste 0 -- -- 76
2019-12-04 01:00:00 7.5 7 Nordeste 17 Nordeste 0 -- -- 76
2019-12-04 00:00:00 7.8 6 Este 21 Nordeste 0 -- -- 75
2019-12-03 23:00:00 8.4 7 Nordeste 17 Nordeste 0 -- -- 73
2019-12-03 22:00:00 8.7 8 Nordeste 22 Nordeste 0 -- -- 73
2019-12-03 21:00:00 9.3 8 Este 21 Nordeste 0 -- -- 73
2019-12-03 20:00:00 10.2 9 Nordeste 24 Nordeste 0 -- -- 71
2019-12-03 19:00:00 10.8 6 Este 24 Nordeste 0 -- -- 68
2019-12-03 18:00:00 11.5 10 Este 24 Norte 0 -- -- 67
2019-12-03 17:00:00 12.3 12 Nordeste 31 Nordeste 0 -- -- 64
2019-12-03 16:00:00 13.2 11 Nordeste 30 Nordeste 0 -- -- 62
2019-12-03 15:00:00 13.9 9 Este 31 Nordeste 0 -- -- 59
2019-12-03 14:00:00 14.1 9 Este 31 Nordeste 0 -- -- 57
2019-12-03 13:00:00 13.5 12 Nordeste 32 Nordeste 0 -- -- 60
2019-12-03 12:00:00 12.4 12 Nordeste 29 Nordeste 0 -- -- 63
2019-12-03 11:00:00 11.1 13 Nordeste 30 Nordeste 0 -- -- 69
2019-12-03 10:00:00 9.9 7 Nordeste 19 Nordeste 0 -- -- 75
2019-12-03 09:00:00 9.4 5 Este 21 Nordeste 0 -- -- 74
2019-12-03 08:00:00 9.2 4 Este 19 Nordeste 0 -- -- 74
2019-12-03 07:00:00 9.3 8 Este 27 Nordeste 0 -- -- 74
2019-12-03 06:00:00 9.7 10 Este 26 Nordeste 0 -- -- 74
2019-12-03 05:00:00 10.1 12 Nordeste 30 Nordeste 0 -- -- 73
2019-12-03 04:00:00 10.1 6 Este 21 Nordeste 0 -- -- 74
2019-12-03 03:00:00 10.2 8 Nordeste 23 Nordeste 0 -- -- 74
2019-12-03 02:00:00 10.2 9 Nordeste 22 Nordeste 0 -- -- 75
2019-12-03 01:00:00 10.3 13 Nordeste 31 Nordeste 0 -- -- 75
2019-12-03 00:00:00 10.1 7 Nordeste 24 Nordeste 0 -- -- 77
2019-12-02 23:00:00 10.3 9 Nordeste 31 Nordeste 0 -- -- 78
2019-12-02 22:00:00 10.6 17 Nordeste 32 Nordeste 0 -- -- 76
2019-12-02 21:00:00 10.8 10 Nordeste 26 Nordeste 0 -- -- 75
2019-12-02 20:00:00 11.5 8 Este 23 Nordeste 0 -- -- 70
2019-12-02 19:00:00 11.7 12 Nordeste 35 Nordeste 0 -- -- 72
2019-12-02 18:00:00 12.4 10 Este 23 Nordeste 0 -- -- 68
2019-12-02 17:00:00 12.7 12 Nordeste 27 Nordeste 0 -- -- 69
2019-12-02 16:00:00 13.5 10 Este 24 Nordeste 0 -- -- 62
2019-12-02 15:00:00 13.9 6 Este 27 Nordeste 0 -- -- 60
2019-12-02 14:00:00 13.8 7 Este 25 Nordeste 0 -- -- 63
2019-12-02 13:00:00 12.4 8 Este 28 Nordeste 0 -- -- 67
2019-12-02 12:00:00 11.4 10 Este 29 Nordeste 0 -- -- 74
2019-12-02 11:00:00 10.1 9 Este 23 Nordeste 0 -- -- 79
2019-12-02 10:00:00 9 4 Este 16 Nordeste 0 -- -- 87
2019-12-02 09:00:00 7.8 5 Sudeste 13 Sudeste 0 -- -- 92
2019-12-02 08:00:00 7.7 0 Calma 13 Este 0 -- -- 91
2019-12-02 07:00:00 7.6 0 Calma 5 Nordeste 0.2 -- -- 93
2019-12-02 06:00:00 7.5 0 Calma 6 Nordeste 0 -- -- 94
2019-12-02 05:00:00 7.7 2 Este 6 Nordeste 0 -- -- 95
2019-12-02 04:00:00 8 0 Calma 6 Este 0 -- -- 96
2019-12-02 03:00:00 8.2 0 Calma 4 Este 0 -- -- 96
2019-12-02 02:00:00 8.3 0 Calma 12 Sudeste 0 -- -- 97
2019-12-02 01:00:00 8.5 0 Calma 15 Sudeste 0.2 -- -- 97
2019-12-02 00:00:00 8.6 4 Sudeste 10 Sudeste 0 -- -- 97
2019-12-01 23:00:00 8.8 4 Sudeste 9 Sudeste 0 -- -- 96
2019-12-01 22:00:00 8.9 4 Sudeste 7 Este 0 -- -- 95
2019-12-01 21:00:00 9.1 0 Calma 6 Sudeste 0.8 -- -- 95
2019-12-01 20:00:00 9.2 2 Sur 9 Sur 0.2 -- -- 93
2019-12-01 19:00:00 9.2 3 Oeste 15 Oeste 4.8 -- -- 93
2019-12-01 18:00:00 10.2 8 Noroeste 15 Noroeste 1.4 -- -- 90
2019-12-01 17:00:00 11.2 0 Calma 6 Oeste 0 -- -- 82
2019-12-01 16:00:00 11.5 5 Oeste 12 Oeste 0 -- -- 82
2019-12-01 15:00:00 11.9 6 Oeste 15 Oeste 0 -- -- 79
2019-12-01 14:00:00 11.7 4 Oeste 11 Oeste 0 -- -- 79
2019-12-01 13:00:00 11.2 6 Oeste 15 Oeste 0 -- -- 75
2019-12-01 12:00:00 10.6 3 Sudoeste 10 Oeste 0 -- -- 86
2019-12-01 11:00:00 9.2 2 Sudoeste 9 Oeste 0 -- -- 96
2019-12-01 10:00:00 8.2 0 Calma 9 Sur 0 -- -- 95
2019-12-01 09:00:00 7.2 0 Calma 6 Oeste 0 -- -- 95
2019-12-01 08:00:00 7.7 4 Oeste 15 Oeste 0 -- -- 94
2019-12-01 07:00:00 8.7 7 Oeste 14 Oeste 0 -- -- 95
2019-12-01 06:00:00 9.5 6 Oeste 17 Oeste 0 -- -- 95
2019-12-01 05:00:00 9.8 5 Oeste 14 Oeste 0 -- -- 93
2019-12-01 04:00:00 10 4 Oeste 24 Sudoeste 2.2 -- -- 95
2019-12-01 03:00:00 11.3 8 Sudoeste 19 Sudoeste 0.8 -- -- 94
2019-12-01 02:00:00 11.9 8 Sudoeste 19 Sudoeste 0 -- -- 89
2019-12-01 01:00:00 12 5 Sudoeste 17 Sudoeste 0 -- -- 86
2019-12-01 00:00:00 11.9 4 Sudoeste 9 Oeste 0 -- -- 87
2019-11-30 23:00:00 11.9 3 Sudoeste 10 Sudoeste 0 -- -- 87
2019-11-30 22:00:00 12.1 4 Sudoeste 13 Sudoeste 0 -- -- 86
2019-11-30 21:00:00 12.7 4 Sudoeste 15 Oeste 0 -- -- 84
2019-11-30 20:00:00 13 7 Sudoeste 16 Oeste 0 -- -- 82
2019-11-30 19:00:00 13.6 8 Sudoeste 18 Oeste 0 -- -- 77
2019-11-30 18:00:00 14.5 7 Sudoeste 18 Oeste 0 -- -- 71
2019-11-30 17:00:00 16.2 4 Sudoeste 16 Oeste 0 -- -- 66
2019-11-30 16:00:00 17.6 5 Sudoeste 17 Oeste 0 -- -- 63
2019-11-30 15:00:00 17.5 4 Oeste 11 Oeste 0 -- -- 63
2019-11-30 14:00:00 16 4 Oeste 9 Oeste 0 -- -- 69
2019-11-30 13:00:00 14.1 4 Noroeste 10 Noroeste 0 -- -- 76
2019-11-30 12:00:00 13.3 3 Sudeste 7 Sudeste 0 -- -- 80
2019-11-30 11:00:00 11.5 4 Nordeste 8 Nordeste 0 -- -- 86
2019-11-30 10:00:00 10.5 2 Este 11 Sudeste 0 -- -- 88
2019-11-30 09:00:00 9.2 3 Este 15 Sudeste 0 -- -- 93
2019-11-30 08:00:00 9.2 7 Sudeste 12 Sudeste 0 -- -- 91
2019-11-30 07:00:00 9.6 0 Calma 7 Sudeste 0 -- -- 92
2019-11-30 06:00:00 9.6 2 Sudeste 10 Sudeste 0 -- -- 92
2019-11-30 05:00:00 9.5 3 Este 12 Sudeste 0 -- -- 92
2019-11-30 04:00:00 10 4 Sudeste 10 Sudeste 0 -- -- 91
2019-11-30 03:00:00 10.6 0 Calma 3 Este 0 -- -- 89
2019-11-30 02:00:00 10.8 0 Calma -- -- 0 -- -- 90
2019-11-30 01:00:00 10.4 0 Calma 4 Sudeste 0 -- -- 90
2019-11-30 00:00:00 10.7 0 Calma 4 Sudeste 0 -- -- 89
2019-11-29 23:00:00 10.9 0 Calma 3 Sudeste 0 -- -- 88
2019-11-29 22:00:00 11.1 0 Calma 53 Sudeste 0 -- -- 87
2019-11-29 21:00:00 11.6 0 Calma -- -- 0 -- -- 83
2019-11-29 20:00:00 11.5 0 Calma 3 Noroeste 0 -- -- 84
2019-11-29 19:00:00 11.9 2 Noroeste 4 Noroeste 0 -- -- 83
2019-11-29 18:00:00 13 0 Calma 8 Norte 0 -- -- 79
2019-11-29 17:00:00 14.1 5 Norte 11 Norte 0 -- -- 73
2019-11-29 16:00:00 14.6 6 Norte 12 Norte 0 -- -- 70
2019-11-29 15:00:00 14.5 4 Nordeste 10 Norte 0 -- -- 69
2019-11-29 14:00:00 14.3 6 Noroeste 11 Noroeste 0 -- -- 70
2019-11-29 13:00:00 14 5 Noroeste 9 Norte 0 -- -- 76
2019-11-29 12:00:00 12.9 0 Calma 6 Noroeste 0 -- -- 78
2019-11-29 11:00:00 11.9 0 Calma 5 Sudeste 0 -- -- 80
2019-11-29 10:00:00 10.9 2 Sudeste -- -- 0 -- -- 87
2019-11-29 09:00:00 10.3 0 Calma 6 Sudeste 0 -- -- 87
2019-11-29 08:00:00 10.2 3 Sudeste 6 Oeste 0 -- -- 89
2019-11-29 07:00:00 10.1 0 Calma 5 Sudeste 0 -- -- 90
2019-11-29 06:00:00 10.2 0 Calma 7 Sudeste 0 -- -- 88
2019-11-29 05:00:00 10.5 0 Calma 7 Nordeste 0 -- -- 86
2019-11-29 04:00:00 10.2 0 Calma 6 Este 0 -- -- 87
2019-11-29 03:00:00 10.1 3 Nordeste 6 Norte 0 -- -- 89
2019-11-29 02:00:00 10 0 Calma 44 Este 0 -- -- 89
2019-11-29 01:00:00 9.8 0 Calma 6 Sudeste 0 -- -- 90
2019-11-29 00:00:00 10.1 4 Sudeste 8 Sudeste 0 -- -- 88
2019-11-28 23:00:00 10.8 2 Sudeste 5 Sudeste 0 -- -- 87
2019-11-28 22:00:00 10.9 0 Calma 5 Este 0 -- -- 87
2019-11-28 21:00:00 10.9 0 Calma 8 Sudeste 0 -- -- 86
2019-11-28 20:00:00 11 3 Sur 4 Sur 0 -- -- 85
2019-11-28 19:00:00 11 0 Calma 4 Sur 0 -- -- 84
2019-11-28 18:00:00 11.3 0 Calma 9 Sur 0 -- -- 83
2019-11-28 17:00:00 11.7 5 Oeste 17 Oeste 0 -- -- 80
2019-11-28 16:00:00 12 5 Oeste 12 Oeste 0 -- -- 80
2019-11-28 15:00:00 12 6 Oeste 17 Oeste 0 -- -- 78
2019-11-28 14:00:00 11.9 5 Oeste 16 Oeste 0 -- -- 79
2019-11-28 13:00:00 12.2 6 Oeste 14 Noroeste 0 -- -- 84
2019-11-28 12:00:00 11.1 3 Oeste 9 Oeste 0 -- -- 93
2019-11-28 11:00:00 10.3 3 Noroeste 8 Noroeste 0 -- -- 96
2019-11-28 10:00:00 9.7 0 Calma 30 Oeste 0 -- -- 97
2019-11-28 09:00:00 9.2 0 Calma 7 Oeste 0 -- -- 97
2019-11-28 08:00:00 9.6 3 Oeste 10 Noroeste 0 -- -- 97
2019-11-28 07:00:00 9.8 3 Oeste 11 Oeste 0 -- -- 97
2019-11-28 06:00:00 10.2 7 Oeste 15 Oeste 0 -- -- 97
2019-11-28 05:00:00 10.4 5 Oeste 14 Oeste 0 -- -- 96
2019-11-28 04:00:00 10.5 3 Sudoeste 10 Oeste 0 -- -- 95
2019-11-28 03:00:00 10.8 3 Oeste 14 Oeste 0 -- -- 95
2019-11-28 02:00:00 11.1 6 Oeste 16 Oeste 0 -- -- 95
2019-11-28 01:00:00 11.2 2 Sudoeste 13 Oeste 0 -- -- 95
2019-11-28 00:00:00 11.4 3 Sudoeste 9 Sudoeste 0 -- -- 94
2019-11-27 23:00:00 11.6 0 Calma 12 Sudoeste 0 -- -- 92
2019-11-27 22:00:00 11.7 2 Sudoeste 14 Oeste 0 -- -- 92
2019-11-27 21:00:00 11.7 4 Sudoeste 12 Sudoeste 0 -- -- 91
2019-11-27 20:00:00 12.2 4 Sudoeste 17 Oeste 0 -- -- 87
2019-11-27 19:00:00 12.6 9 Oeste 24 Oeste 0 -- -- 84
2019-11-27 18:00:00 13.1 3 Sudoeste 18 Oeste 0 -- -- 79
2019-11-27 17:00:00 13.9 5 Sudoeste 19 Oeste 0 -- -- 76
2019-11-27 16:00:00 14 6 Sudoeste 18 Noroeste 0 -- -- 76
2019-11-27 15:00:00 13.9 9 Oeste 21 Oeste 0 -- -- 79
2019-11-27 14:00:00 13.4 9 Oeste 23 Oeste 0 -- -- 80
2019-11-27 06:00:00 -- -- -- -- -- -- -- -- --
2019-11-27 05:00:00 -- -- -- -- -- -- -- -- --
2019-11-27 04:00:00 -- -- -- -- -- -- -- -- --
2019-11-27 03:00:00 -- -- -- -- -- -- -- -- --
2019-11-27 02:00:00 -- -- -- -- -- -- -- -- --
2019-11-27 01:00:00 -- -- -- -- -- -- -- -- --
2019-11-27 00:00:00 -- -- -- -- -- -- -- -- --
2019-11-26 23:00:00 -- -- -- -- -- -- -- -- --
2019-11-26 22:00:00 -- -- -- -- -- -- -- -- --
2019-11-26 21:00:00 -- -- -- -- -- -- -- -- --
2019-11-26 20:00:00 -- -- -- -- -- -- -- -- --
2019-11-26 19:00:00 -- -- -- -- -- -- -- -- --
2019-11-26 18:00:00 -- -- -- -- -- -- -- -- --
2019-11-26 17:00:00 -- -- -- -- -- -- -- -- --
2019-11-26 16:00:00 -- -- -- -- -- -- -- -- --
2019-11-26 15:00:00 -- -- -- -- -- -- -- -- --
2019-11-26 14:00:00 -- -- -- -- -- -- -- -- --
2019-11-26 13:00:00 -- -- -- -- -- -- -- -- --
2019-11-26 12:00:00 -- -- -- -- -- -- -- -- --
2019-11-26 11:00:00 -- -- -- -- -- -- -- -- --
2019-11-26 10:00:00 -- -- -- -- -- -- -- -- --
2019-11-26 09:00:00 -- -- -- -- -- -- -- -- --
2019-11-26 08:00:00 -- -- -- -- -- -- -- -- --
2019-11-26 07:00:00 -- -- -- -- -- -- -- -- --
2019-11-26 06:00:00 -- -- -- -- -- -- -- -- --
2019-11-26 05:00:00 -- -- -- -- -- -- -- -- --
2019-11-26 04:00:00 -- -- -- -- -- -- -- -- --
2019-11-26 03:00:00 -- -- -- -- -- -- -- -- --
2019-11-26 02:00:00 -- -- -- -- -- -- -- -- --
2019-11-26 01:00:00 -- -- -- -- -- -- -- -- --
2019-11-26 00:00:00 -- -- -- -- -- -- -- -- --
2019-11-25 23:00:00 -- -- -- -- -- -- -- -- --
2019-11-25 22:00:00 -- -- -- -- -- -- -- -- --
2019-11-25 21:00:00 -- -- -- -- -- -- -- -- --
2019-11-25 20:00:00 -- -- -- -- -- -- -- -- --
2019-11-25 19:00:00 -- -- -- -- -- -- -- -- --
2019-11-25 18:00:00 -- -- -- -- -- -- -- -- --
2019-11-25 17:00:00 11.8 3 Sudoeste 10 Oeste 0.4 -- -- 97
2019-11-25 16:00:00 11.4 2 Oeste 12 Oeste 0.2 -- -- 97
2019-11-25 15:00:00 11.1 3 Sudoeste 14 Oeste 0 -- -- 97
2019-11-25 14:00:00 10.9 4 Oeste 11 Oeste 0.2 -- -- 96
2019-11-25 13:00:00 10.6 5 Oeste 11 Oeste 0.4 -- -- 96
2019-11-25 12:00:00 10.1 3 Oeste 10 Oeste 0.4 -- -- 96
2019-11-25 11:00:00 9.9 4 Oeste 8 Oeste 0.6 -- -- 96
2019-11-25 10:00:00 9.6 0 Calma 5 Sudoeste 0.8 -- -- 96
2019-11-25 09:00:00 9.3 0 Calma 6 Sur 0.8 -- -- 95
2019-11-25 08:00:00 9.1 0 Calma 8 Sur 0.6 -- -- 95
2019-11-25 07:00:00 9.2 2 Sur 10 Sur 0.4 -- -- 94
2019-11-25 06:00:00 9.3 3 Sudoeste 8 Oeste 0.6 -- -- 93
2019-11-25 05:00:00 9.3 0 Calma 14 Oeste 0 -- -- 92
2019-11-25 04:00:00 9.5 2 Sudoeste 17 Oeste 0 -- -- 89
2019-11-25 03:00:00 9.5 4 Oeste 10 Oeste 0 -- -- 87
2019-11-25 02:00:00 9.5 2 Sudoeste 6 Oeste 0 -- -- 86
2019-11-25 01:00:00 9.5 3 Oeste 9 Oeste 0 -- -- 85
2019-11-25 00:00:00 9.6 0 Calma 6 Sudoeste 0 -- -- 84
2019-11-24 23:00:00 9.5 3 Sudoeste 8 Oeste 0 -- -- 85
2019-11-24 22:00:00 9.6 4 Sudoeste 12 Oeste 0 -- -- 84
2019-11-24 21:00:00 9.6 3 Sudoeste 12 Oeste 0 -- -- 83
2019-11-24 20:00:00 9.7 3 Sudoeste 13 Oeste 0 -- -- 83
2019-11-24 19:00:00 9.5 4 Sudoeste 14 Oeste 0 -- -- 82
2019-11-24 18:00:00 9.9 5 Sudoeste 17 Oeste 0 -- -- 77
2019-11-24 17:00:00 11.3 6 Sudoeste 15 Noroeste 0 -- -- 69
2019-11-24 16:00:00 12 4 Sudoeste 17 Oeste 0 -- -- 67
2019-11-24 15:00:00 11.4 4 Sudoeste 16 Oeste 0 -- -- 67
2019-11-24 14:00:00 10.6 6 Oeste 17 Oeste 0 -- -- 72
2019-11-24 13:00:00 8.6 4 Noroeste 22 Oeste 0 -- -- 86
2019-11-24 12:00:00 6.6 4 Noroeste 11 Oeste 0 -- -- 94
2019-11-24 11:00:00 5.9 6 Oeste 15 Oeste 0 -- -- 95
2019-11-24 10:00:00 5.7 3 Sudoeste 11 Noroeste 0 -- -- 95
2019-11-24 09:00:00 5 0 Calma 5 Oeste 0 -- -- 94
2019-11-24 08:00:00 4.6 0 Calma 7 Oeste 0 -- -- 92
2019-11-24 07:00:00 5.1 2 Sudoeste 7 Sudoeste 0 -- -- 92
2019-11-24 06:00:00 5.6 0 Calma 10 Sudoeste 0 -- -- 90
2019-11-24 05:00:00 5.9 2 Sudoeste 10 Sudoeste 0 -- -- 90
2019-11-24 04:00:00 5.9 2 Sudoeste 8 Sudoeste 0 -- -- 89
2019-11-24 03:00:00 6.2 0 Calma 8 Sudoeste 0 -- -- 88
2019-11-24 02:00:00 6.8 3 Sur 14 Oeste 0 -- -- 86
2019-11-24 01:00:00 7 3 Sur 15 Sudoeste 0 -- -- 85
2019-11-24 00:00:00 7.8 5 Sudoeste 17 Sudoeste 0 -- -- 80
2019-11-23 23:00:00 8.1 3 Sudoeste 15 Sudoeste 0 -- -- 77
2019-11-23 22:00:00 8.8 4 Sudoeste 18 Oeste 0 -- -- 73
2019-11-23 21:00:00 9.2 6 Sudoeste 19 Oeste 0 -- -- 70
2019-11-23 20:00:00 9.3 9 Oeste 22 Oeste 0 -- -- 69
2019-11-23 19:00:00 9.8 7 Oeste 21 Oeste 0 -- -- 67
2019-11-23 18:00:00 10.6 9 Oeste 30 Oeste 0 -- -- 64
2019-11-23 17:00:00 11.8 17 Oeste 34 Noroeste 0 -- -- 57
2019-11-23 16:00:00 11.7 14 Oeste 36 Noroeste 0 -- -- 58
2019-11-23 15:00:00 12.5 18 Oeste 37 Oeste 0 -- -- 54
2019-11-23 14:00:00 12.2 17 Oeste 34 Oeste 0 -- -- 58
2019-11-23 13:00:00 11.1 19 Oeste 39 Oeste 0 -- -- 65
2019-11-23 12:00:00 10.1 15 Oeste 40 Oeste 0 -- -- 73
2019-11-23 11:00:00 9.1 15 Oeste 37 Oeste 0 -- -- 84
2019-11-23 10:00:00 8.6 16 Oeste 37 Oeste 0 -- -- 88
2019-11-23 09:00:00 8.1 15 Oeste 39 Oeste 0 -- -- 92
2019-11-23 08:00:00 8.1 17 Sudoeste 29 Oeste 0 -- -- 92
2019-11-23 07:00:00 8.3 10 Sudoeste 30 Oeste 0 -- -- 93
2019-11-23 06:00:00 7.7 14 Oeste 40 Noroeste 0.2 -- -- 92
2019-11-23 05:00:00 8.6 12 Noroeste 51 Oeste 0.2 -- -- 95
2019-11-23 04:00:00 8.7 20 Oeste 62 Noroeste 6.2 -- -- 96
2019-11-23 03:00:00 10.1 13 Oeste 36 Oeste 2 -- -- 94
2019-11-23 02:00:00 10.4 13 Sudoeste 37 Oeste 0 -- -- 94
2019-11-23 01:00:00 10.7 19 Oeste 44 Oeste 0.2 -- -- 92
2019-11-23 00:00:00 10.9 9 Sudoeste 26 Sudoeste 0 -- -- 92
2019-11-22 23:00:00 11 13 Sudoeste 36 Sudoeste 0.2 -- -- 93
2019-11-22 22:00:00 12.2 11 Sudoeste 30 Oeste 0 -- -- 95
2019-11-22 21:00:00 12.3 8 Sudoeste 28 Oeste 0 -- -- 95
2019-11-22 20:00:00 13.2 14 Oeste 39 Oeste 0 -- -- 97
2019-11-22 19:00:00 13.6 21 Oeste 41 Oeste 9 -- -- 97
2019-11-22 18:00:00 12.4 8 Noroeste 25 Oeste 18 -- -- 97
2019-11-22 17:00:00 12.7 12 Sudoeste 32 Sudoeste 12.8 -- -- 97
2019-11-22 16:00:00 12.1 12 Noroeste 24 Noroeste 12.4 -- -- 96
2019-11-22 15:00:00 12.3 5 Sudoeste 26 Sur 2.6 -- -- 96
2019-11-22 14:00:00 12.8 7 Sudoeste 24 Sur 2.6 -- -- 97
2019-11-22 13:00:00 12.4 4 Sudoeste 15 Sur 1.2 -- -- 98
2019-11-22 12:00:00 12 0 Calma 12 Sudoeste 0.6 -- -- 97
2019-11-22 11:00:00 11.7 3 Sur 11 Sur 0.4 -- -- 98
2019-11-22 10:00:00 11.1 3 Sur 10 Sur 0.2 -- -- 98
2019-11-22 09:00:00 10.7 0 Calma 9 Sur 0 -- -- 98
2019-11-22 08:00:00 10.6 0 Calma 9 Sur 0.2 -- -- 97
2019-11-22 07:00:00 10.5 2 Sur 10 Sur 0 -- -- 97
2019-11-22 06:00:00 10.4 0 Calma 22 Oeste 0.2 -- -- 97
2019-11-22 05:00:00 10.2 0 Calma 47 Sudoeste 0 -- -- 97
2019-11-22 04:00:00 10.2 0 Calma 49 Sur 0.6 -- -- 97
2019-11-22 03:00:00 10.2 0 Calma 6 Sur 0.4 -- -- 97
2019-11-22 02:00:00 10.2 0 Calma 7 Sur 0 -- -- 97
2019-11-22 01:00:00 10.2 0 Calma 8 Sur 0.2 -- -- 97
2019-11-22 00:00:00 10.3 0 Calma 5 Sur 0.2 -- -- 97
2019-11-21 23:00:00 10.2 0 Calma 6 Sur 0 -- -- 97
2019-11-21 22:00:00 10.2 0 Calma 6 Sur 0 -- -- 97
2019-11-21 21:00:00 10 0 Calma 5 Sur 0 -- -- 97
2019-11-21 20:00:00 10 0 Calma 7 Sudeste 0 -- -- 97
2019-11-21 19:00:00 10 0 Calma 11 Sudeste 0.4 -- -- 96
2019-11-21 18:00:00 10.2 0 Calma 3 Sudeste 1.4 -- -- 95
2019-11-21 17:00:00 10.2 0 Calma 6 Oeste 1.4 -- -- 95
2019-11-21 16:00:00 10.3 0 Calma 4 Oeste 3.2 -- -- 95
2019-11-21 15:00:00 10.1 3 Norte 9 Noroeste 3.2 -- -- 95
2019-11-21 14:00:00 10.4 2 Sur 9 Oeste 0.6 -- -- 95
2019-11-21 13:00:00 10.3 3 Sudoeste 11 Oeste 0.2 -- -- 96
2019-11-21 12:00:00 9.5 3 Sur 10 Sur 0.8 -- -- 97
2019-11-21 11:00:00 8.8 0 Calma -- -- 1.2 -- -- 96
2019-11-21 10:00:00 8.4 0 Calma 7 Sudeste 0 -- -- 96
2019-11-21 09:00:00 8.4 0 Calma 6 Sur 0 -- -- 96
2019-11-21 08:00:00 8.3 0 Calma 4 Noroeste 0.2 -- -- 96
2019-11-21 07:00:00 8.4 0 Calma 6 Sur 0 -- -- 96
2019-11-21 06:00:00 7.9 0 Calma 11 Oeste 0 -- -- 96
2019-11-21 05:00:00 7.9 2 Sudoeste 12 Sudoeste 0 -- -- 95
2019-11-21 04:00:00 7.9 4 Sudoeste 14 Oeste 0.4 -- -- 95
2019-11-21 03:00:00 8 3 Sudoeste 9 Sudoeste 0.4 -- -- 95
2019-11-21 02:00:00 7.4 3 Sur 7 Sudeste 0.2 -- -- 94
2019-11-21 01:00:00 7.5 0 Calma 3 Sur 0 -- -- 93
2019-11-21 00:00:00 7.2 0 Calma 6 Oeste 0 -- -- 92
2019-11-20 23:00:00 7 0 Calma 3 Sur 0 -- -- 91
2019-11-20 22:00:00 6.8 0 Calma 7 Sudeste 1.2 -- -- 90
2019-11-20 21:00:00 6.8 4 Sudeste 6 Sudeste 0 -- -- 87
2019-11-20 20:00:00 7.4 0 Calma 8 Sudeste 0.2 -- -- 81
2019-11-20 19:00:00 7.5 3 Sudeste 6 Este 0.2 -- -- 82
2019-11-20 18:00:00 8.1 0 Calma 5 Nordeste 0 -- -- 82
2019-11-20 17:00:00 8.3 0 Calma 8 Sudeste 0 -- -- 78
2019-11-20 16:00:00 8.6 0 Calma 3 Sur 0 -- -- 76
2019-11-20 15:00:00 8.9 0 Calma 6 Norte 0.2 -- -- 73
2019-11-20 14:00:00 8.9 3 Norte 12 Oeste 0 -- -- 70
2019-11-20 13:00:00 9 6 Oeste 13 Oeste 0 -- -- 76
2019-11-20 12:00:00 8.6 3 Noroeste 10 Sudeste 0 -- -- 71
2019-11-20 11:00:00 7.2 4 Sudeste 12 Sudeste 0 -- -- 77
2019-11-20 10:00:00 5.8 3 Sudeste 9 Sudeste 0 -- -- 81
2019-11-20 09:00:00 4.9 4 Sudeste 9 Sudeste 0 -- -- 87
2019-11-20 08:00:00 4.1 0 Calma 7 Sudeste 0 -- -- 90
2019-11-20 07:00:00 3.9 2 Este 8 Sudeste 0 -- -- 91
2019-11-20 06:00:00 4.2 4 Sudeste 10 Sudeste 0 -- -- 90
2019-11-20 05:00:00 4.8 4 Sudeste 6 Sudeste 0 -- -- 90
2019-11-20 04:00:00 5.1 2 Sudeste 8 Sudeste 0 -- -- 90
2019-11-20 03:00:00 5.2 0 Calma 4 Sudeste 0 -- -- 88
2019-11-20 02:00:00 5.6 2 Sudeste 6 Sudeste 0 -- -- 89
2019-11-20 01:00:00 5.9 5 Sudeste 8 Sudeste 0 -- -- 86
2019-11-20 00:00:00 6.6 5 Sudeste 7 Sudeste 0 -- -- 86
2019-11-19 23:00:00 6.8 0 Calma 2 Sur 0 -- -- 82
2019-11-19 22:00:00 7.2 0 Calma 4 Sudeste 0 -- -- 83
2019-11-19 21:00:00 7 3 Noroeste 3 Noroeste 0 -- -- 82
2019-11-19 20:00:00 7.3 0 Calma 4 Oeste 0 -- -- 80
2019-11-19 19:00:00 8.1 0 Calma 6 Sudoeste 0 -- -- 76
2019-11-19 18:00:00 9 4 Sur 6 Sur 0 -- -- 74
2019-11-19 17:00:00 10.6 3 Sudoeste 6 Oeste 0 -- -- 67
2019-11-19 16:00:00 10.7 3 Sudoeste 9 Sur 0 -- -- 65
2019-11-19 15:00:00 11.2 2 Sudoeste 9 Oeste 0 -- -- 61
2019-11-19 14:00:00 10.7 4 Norte 9 Noroeste 0 -- -- 61
2019-11-19 13:00:00 9.4 4 Oeste 11 Oeste 0 -- -- 69
2019-11-19 12:00:00 8 3 Sudeste 12 Sudeste 0 -- -- 76
2019-11-19 11:00:00 6.1 3 Sudeste 13 Sudeste 0 -- -- 79
2019-11-19 10:00:00 4.7 6 Sudeste 13 Sudeste 0 -- -- 82
2019-11-19 09:00:00 3.9 4 Sudeste 9 Sudeste 0 -- -- 86
2019-11-19 08:00:00 3.8 0 Calma 5 Sudeste 0 -- -- 86
2019-11-19 07:00:00 4 0 Calma 6 Sudeste 0 -- -- 87
2019-11-19 06:00:00 4 3 Sudeste 9 Sudeste 0 -- -- 89
2019-11-19 05:00:00 4.8 5 Sudeste 11 Sudeste 0 -- -- 87
2019-11-19 04:00:00 4.9 4 Sudeste 9 Sudeste 0 -- -- 84
2019-11-19 03:00:00 5.9 2 Este 3 Este 0 -- -- 81
2019-11-19 02:00:00 6.2 0 Calma 8 Nordeste 0 -- -- 85
2019-11-19 01:00:00 6.2 2 Sudeste 9 Norte 0 -- -- 81
2019-11-19 00:00:00 6.9 3 Nordeste 5 Norte 0 -- -- 79
2019-11-18 23:00:00 6.9 0 Calma 4 Oeste 0 -- -- 79
2019-11-18 22:00:00 7 0 Calma 5 Oeste 0 -- -- 81
2019-11-18 21:00:00 7.7 0 Calma 5 Oeste 0 -- -- 78
2019-11-18 20:00:00 8.4 0 Calma 4 Sur 0 -- -- 73
2019-11-18 19:00:00 9.4 0 Calma 4 Sur 0 -- -- 69
2019-11-18 18:00:00 10.6 0 Calma 8 Oeste 0 -- -- 61
2019-11-18 17:00:00 11.3 2 Oeste 7 Oeste 0 -- -- 57
2019-11-18 16:00:00 11.8 0 Calma 15 Nordeste 0 -- -- 54
2019-11-18 15:00:00 11.8 5 Nordeste 15 Nordeste 0 -- -- 56
2019-11-18 14:00:00 10.3 3 Sur 10 Norte 0 -- -- 67
2019-11-18 13:00:00 10 4 Sur 10 Sudeste 0 -- -- 71
2019-11-18 12:00:00 8.6 0 Calma 7 Noroeste 0 -- -- 75
2019-11-18 11:00:00 7.5 3 Oeste 10 Sudeste 0 -- -- 82
2019-11-18 10:00:00 7.3 5 Sudeste 8 Sudeste 0 -- -- 89
2019-11-18 09:00:00 6.5 2 Sur 10 Nordeste 0 -- -- 93
2019-11-18 08:00:00 6.8 5 Nordeste 9 Nordeste 0 -- -- 95
2019-11-18 07:00:00 7.2 2 Este 7 Nordeste 0 -- -- 97
2019-11-18 06:00:00 8.1 0 Calma 11 Sudeste 0 -- -- 97
2019-11-18 05:00:00 8.8 2 Este 8 Nordeste 0 -- -- 97
2019-11-18 04:00:00 9.2 4 Oeste 17 Oeste 0.4 -- -- 97
2019-11-18 03:00:00 8.7 3 Sudoeste 28 Norte 1.8 -- -- 97
2019-11-18 02:00:00 9.2 11 Oeste 26 Oeste 0.2 -- -- 97
2019-11-18 01:00:00 8.7 11 Oeste 30 Oeste 0 -- -- 97
2019-11-18 00:00:00 7.2 9 Oeste 20 Oeste 0.6 -- -- 96
2019-11-17 23:00:00 6.9 6 Sudoeste 21 Noroeste 2.2 -- -- 96
2019-11-17 22:00:00 6.3 2 Sur 5 Sur 2 -- -- 96
2019-11-17 21:00:00 5.9 3 Norte 7 Norte 3.8 -- -- 96
2019-11-17 20:00:00 6 0 Calma 4 Sudeste 0.6 -- -- 95
2019-11-17 19:00:00 6.1 0 Calma 5 Sur 0.4 -- -- 96
2019-11-17 18:00:00 6.1 0 Calma 7 Oeste 0.2 -- -- 96
2019-11-17 17:00:00 5.9 3 Oeste 8 Oeste 0.2 -- -- 95
2019-11-17 16:00:00 6 2 Noroeste 11 Oeste 0.4 -- -- 95
2019-11-17 15:00:00 5.7 3 Oeste 13 Oeste 0.4 -- -- 95
2019-11-17 14:00:00 5 6 Oeste 17 Oeste 1.6 -- -- 94
2019-11-17 13:00:00 4.4 6 Oeste 22 Oeste 1.6 -- -- 93
2019-11-17 12:00:00 4.9 5 Oeste 18 Oeste 0.2 -- -- 87
2019-11-17 11:00:00 4.9 6 Oeste 16 Oeste 0 -- -- 81
2019-11-17 10:00:00 4.1 5 Oeste 9 Oeste 0 -- -- 81
2019-11-17 09:00:00 3 0 Calma 7 Oeste 0 -- -- 84
2019-11-17 08:00:00 2.8 2 Oeste 8 Oeste 0 -- -- 82
2019-11-17 07:00:00 2.9 3 Sudoeste 10 Sudoeste 0 -- -- 82
2019-11-17 06:00:00 3.2 3 Oeste 14 Oeste 0 -- -- 79
2019-11-17 05:00:00 4 6 Sudoeste 14 Oeste 0 -- -- 75
2019-11-17 04:00:00 4 5 Oeste 14 Oeste 0 -- -- 74
2019-11-17 03:00:00 3.7 4 Oeste 10 Oeste 0 -- -- 76
2019-11-17 02:00:00 4.5 0 Calma 8 Oeste 0 -- -- 73
2019-11-17 01:00:00 5 3 Sudoeste 13 Oeste 0 -- -- 70
2019-11-17 00:00:00 5.3 5 Sudoeste 14 Oeste 0 -- -- 70
2019-11-16 23:00:00 5.8 3 Sudoeste 14 Oeste 0 -- -- 68
2019-11-16 22:00:00 6.3 4 Sudoeste 15 Oeste 0 -- -- 66
2019-11-16 21:00:00 6.3 2 Sur 12 Oeste 0 -- -- 68
2019-11-16 20:00:00 7.5 5 Oeste 15 Oeste 0 -- -- 62
2019-11-16 19:00:00 7.8 4 Sudoeste 12 Oeste 0 -- -- 61
2019-11-16 18:00:00 8.8 4 Sudoeste 18 Sudoeste 0 -- -- 58
2019-11-16 17:00:00 10 5 Sudoeste 13 Sudoeste 0 -- -- 54
2019-11-16 16:00:00 11.1 5 Sudoeste 18 Oeste 0 -- -- 51
2019-11-16 15:00:00 10.5 5 Sudoeste 13 Oeste 0 -- -- 53
2019-11-16 14:00:00 9.6 5 Oeste 15 Oeste 0 -- -- 57
2019-11-16 13:00:00 7.4 5 Oeste 15 Noroeste 0 -- -- 68
2019-11-16 12:00:00 5.6 4 Oeste 11 Oeste 0 -- -- 78
2019-11-16 11:00:00 4.9 5 Noroeste 9 Noroeste 0 -- -- 84
2019-11-16 10:00:00 3.6 3 Sur 12 Sudeste 0 -- -- 89
2019-11-16 09:00:00 2.4 3 Sudeste 6 Sudeste 0 -- -- 94
2019-11-16 08:00:00 1.6 4 Sudeste 8 Sudeste 0 -- -- 93
2019-11-16 07:00:00 1.6 2 Sudeste 6 Sudeste 0 -- -- 92
2019-11-16 06:00:00 1.7 0 Calma 4 Sudeste 0 -- -- 89
2019-11-16 05:00:00 2.3 3 Noroeste 6 Oeste 0 -- -- 86
2019-11-16 04:00:00 2.9 2 Sudoeste 10 Oeste 0 -- -- 84
2019-11-16 03:00:00 2.9 0 Calma 3 Sudoeste 0 -- -- 85
2019-11-16 02:00:00 3.3 0 Calma 3 Sudoeste 0 -- -- 82
2019-11-16 01:00:00 3.4 0 Calma 4 Sudoeste 0 -- -- 82
2019-11-16 00:00:00 4 2 Noroeste 10 Oeste 0 -- -- 79
2019-11-15 23:00:00 5 0 Calma 10 Sudoeste 0 -- -- 75
2019-11-15 22:00:00 5.3 3 Sudoeste 11 Oeste 0 -- -- 75
2019-11-15 21:00:00 5.8 3 Sur 10 Oeste 0 -- -- 74
2019-11-15 20:00:00 6.1 2 Sudoeste 12 Sudoeste 0 -- -- 72
2019-11-15 19:00:00 6.7 5 Sudoeste 14 Oeste 0 -- -- 68
2019-11-15 18:00:00 7.1 5 Sudoeste 17 Oeste 0 -- -- 67
2019-11-15 17:00:00 7.5 6 Oeste 18 Oeste 0 -- -- 66
2019-11-15 16:00:00 7.9 6 Oeste 23 Oeste 0 -- -- 63
2019-11-15 15:00:00 8.5 10 Oeste 23 Oeste 0 -- -- 62
2019-11-15 14:00:00 7.4 8 Oeste 22 Oeste 0 -- -- 68
2019-11-15 13:00:00 6.8 6 Sudoeste 20 Oeste 0 -- -- 72
2019-11-15 12:00:00 6.7 5 Sudoeste 27 Noroeste 0 -- -- 74
2019-11-15 11:00:00 5.5 9 Sudoeste 26 Oeste 0 -- -- 83
2019-11-15 10:00:00 4.4 8 Sudoeste 22 Oeste 0 -- -- 88
2019-11-15 09:00:00 3.9 9 Sudoeste 23 Oeste 0 -- -- 90
2019-11-15 08:00:00 4.1 12 Oeste 27 Oeste 0 -- -- 91
2019-11-15 07:00:00 4.4 5 Sudoeste 23 Oeste 0 -- -- 91
2019-11-15 06:00:00 4.8 9 Sudoeste 27 Oeste 0 -- -- 89
2019-11-15 05:00:00 5.1 6 Sudoeste 24 Oeste 0 -- -- 88
2019-11-15 04:00:00 5.8 12 Oeste 34 Oeste 0 -- -- 85
2019-11-15 03:00:00 6.3 14 Oeste 31 Sudoeste 0 -- -- 85
2019-11-15 02:00:00 6.8 10 Sudoeste 25 Oeste 0 -- -- 82
2019-11-15 01:00:00 7.2 6 Sudoeste 31 Sudoeste 0 -- -- 79
2019-11-15 00:00:00 7.6 16 Oeste 33 Oeste 0 -- -- 76
2019-11-14 23:00:00 7.9 17 Sudoeste 34 Sudoeste 0 -- -- 75
2019-11-14 22:00:00 8.3 16 Sudoeste 36 Oeste 0 -- -- 72
2019-11-14 21:00:00 8.5 15 Sudoeste 33 Sudoeste 0 -- -- 68
2019-11-14 20:00:00 8.8 16 Oeste 36 Oeste 0 -- -- 67
2019-11-14 19:00:00 8.8 14 Oeste 34 Oeste 0 -- -- 66
2019-11-14 18:00:00 9.3 13 Oeste 41 Oeste 0 -- -- 63
2019-11-14 17:00:00 9.8 14 Oeste 33 Oeste 0 -- -- 75
2019-11-14 16:00:00 9.8 12 Sudoeste 30 Sudoeste 0 -- -- 82
2019-11-14 15:00:00 8.8 13 Oeste 33 Oeste 0 -- -- 89
2019-11-14 14:00:00 7.9 12 Oeste 41 Oeste 1.4 -- -- 93
2019-11-14 13:00:00 8.7 16 Oeste 41 Oeste 1 -- -- 96
2019-11-14 12:00:00 8.4 19 Oeste 39 Oeste 2 -- -- 95
2019-11-14 11:00:00 8.2 13 Sudoeste 29 Oeste 0 -- -- 93
2019-11-14 10:00:00 8.5 14 Sudoeste 33 Oeste 0 -- -- 87
2019-11-14 09:00:00 8.5 6 Sudoeste 18 Sudoeste 0 -- -- 88
2019-11-14 08:00:00 8.1 8 Sudoeste 26 Oeste 0 -- -- 92
2019-11-14 07:00:00 8.2 11 Sudoeste 26 Sudoeste 0 -- -- 93
2019-11-14 06:00:00 9.3 12 Oeste 27 Oeste 0 -- -- 92
2019-11-14 05:00:00 10.4 15 Oeste 29 Oeste 0 -- -- 94
2019-11-14 04:00:00 10.9 9 Oeste 31 Noroeste 0 -- -- 94
2019-11-14 03:00:00 11.1 8 Oeste 26 Oeste 0 -- -- 93
2019-11-14 02:00:00 11.4 13 Oeste 26 Sudoeste 0 -- -- 93
2019-11-14 01:00:00 11.5 8 Sudoeste 21 Oeste 0 -- -- 92
2019-11-14 00:00:00 11.5 5 Sudoeste 13 Sudoeste 0 -- -- 91
2019-11-13 23:00:00 12.2 5 Sudoeste 24 Sudoeste 0 -- -- 85
2019-11-13 22:00:00 12.9 9 Oeste 23 Oeste 0 -- -- 84
2019-11-13 21:00:00 13.3 7 Sudoeste 20 Oeste 0 -- -- 84
2019-11-13 20:00:00 13.5 6 Sudoeste 20 Sudoeste 0 -- -- 85
2019-11-13 19:00:00 13.9 5 Sudoeste 11 Oeste 0 -- -- 82
2019-11-13 18:00:00 14.9 5 Sudoeste 26 Oeste 0 -- -- 77
2019-11-13 17:00:00 15.5 11 Oeste 26 Oeste 0 -- -- 77
2019-11-13 16:00:00 15.1 9 Sudoeste 25 Oeste 0 -- -- 80
2019-11-13 15:00:00 14.4 9 Sudoeste 27 Oeste 0 -- -- 87
2019-11-13 14:00:00 13.3 12 Oeste 31 Oeste 0 -- -- 92
2019-11-13 13:00:00 12.3 14 Oeste 33 Oeste 0 -- -- 97
2019-11-13 12:00:00 11.5 17 Oeste 40 Oeste 0 -- -- 97
2019-11-13 11:00:00 10.9 16 Sudoeste 38 Oeste 0.2 -- -- 96
2019-11-13 10:00:00 10.2 15 Sudoeste 33 Sudoeste 0 -- -- 96
2019-11-13 09:00:00 9.6 12 Oeste 28 Oeste 0.2 -- -- 96
2019-11-13 08:00:00 9.2 10 Oeste 25 Oeste 0.2 -- -- 95
2019-11-13 07:00:00 9 13 Oeste 32 Sudoeste 1 -- -- 93
2019-11-13 06:00:00 9.5 14 Sudoeste 31 Oeste 0 -- -- 88
2019-11-13 05:00:00 9.8 8 Sudoeste 26 Oeste 0 -- -- 81
2019-11-13 04:00:00 9.8 7 Sudoeste 19 Oeste 0 -- -- 75
2019-11-13 03:00:00 9.9 7 Sudoeste 27 Sudoeste 0 -- -- 72
2019-11-13 02:00:00 9.8 6 Sudoeste 21 Sudoeste 0 -- -- 68
2019-11-13 01:00:00 9.9 6 Sudoeste 19 Noroeste 0 -- -- 68
2019-11-13 00:00:00 10.3 4 Sudoeste 16 Oeste 0 -- -- 69
2019-11-12 23:00:00 10.4 2 Sudoeste 14 Oeste 0 -- -- 65
2019-11-12 22:00:00 10.2 2 Sudoeste 12 Oeste 0 -- -- 63
2019-11-12 21:00:00 10.2 5 Sudoeste 20 Oeste 0 -- -- 62
2019-11-12 20:00:00 11.2 6 Oeste 16 Sudoeste 0 -- -- 61
2019-11-12 19:00:00 11.5 4 Sudoeste 16 Sudoeste 0 -- -- 63
2019-11-12 18:00:00 12.8 6 Sudoeste 15 Sudoeste 0 -- -- 58
2019-11-12 17:00:00 13.9 5 Sudoeste 19 Oeste 0 -- -- 56
2019-11-12 16:00:00 15.3 6 Oeste 17 Oeste 0 -- -- 51
2019-11-12 15:00:00 14.7 6 Oeste 18 Oeste 0 -- -- 51
2019-11-12 14:00:00 13.7 6 Oeste 15 Oeste 0 -- -- 52
2019-11-12 13:00:00 11.9 4 Oeste 10 Oeste 0 -- -- 54
2019-11-12 12:00:00 10.8 4 Sudeste 15 Sudeste 0 -- -- 60
2019-11-12 11:00:00 9.2 5 Sudeste 13 Sudeste 0 -- -- 77
2019-11-12 10:00:00 8.3 3 Nordeste 12 Sudeste 0 -- -- 84
2019-11-12 09:00:00 7.2 4 Sudeste 10 Nordeste 0 -- -- 91
2019-11-12 08:00:00 6.5 6 Sudeste 14 Sudeste 0 -- -- 95
2019-11-12 07:00:00 6.9 7 Sudeste 14 Sudeste 0 -- -- 95
2019-11-12 06:00:00 6.9 3 Sudeste 5 Sur 0 -- -- 95
2019-11-12 05:00:00 7.1 0 Calma 3 Norte 0 -- -- 94
2019-11-12 04:00:00 7.6 0 Calma 3 Sudeste 0 -- -- 94
2019-11-12 03:00:00 7.6 3 Sur 8 Sudeste 0 -- -- 93
2019-11-12 02:00:00 7.6 3 Sudeste 9 Este 0 -- -- 92
2019-11-12 01:00:00 8.4 0 Calma 6 Oeste 0 -- -- 90
2019-11-12 00:00:00 8.8 0 Calma 4 Oeste 0 -- -- 89
2019-11-11 23:00:00 9.7 2 Sur 4 Sur 0 -- -- 86
2019-11-11 22:00:00 9.3 0 Calma 5 Oeste 0 -- -- 85
2019-11-11 21:00:00 9.7 0 Calma 5 Sur 0 -- -- 82
2019-11-11 20:00:00 10.3 0 Calma 5 Sur 0 -- -- 79
2019-11-11 19:00:00 10.8 0 Calma 5 Oeste 0 -- -- 78
2019-11-11 18:00:00 10.9 0 Calma 6 Oeste 0 -- -- 76
2019-11-11 17:00:00 11 3 Oeste 10 Oeste 0 -- -- 75
2019-11-11 16:00:00 11 4 Oeste 19 Oeste 0 -- -- 74
2019-11-11 15:00:00 10.5 5 Oeste 14 Oeste 0 -- -- 75
2019-11-11 14:00:00 10 5 Oeste 14 Oeste 0 -- -- 76
2019-11-11 13:00:00 9.5 4 Oeste 9 Oeste 0 -- -- 76
2019-11-11 12:00:00 8.8 4 Noroeste 9 Oeste 0 -- -- 79
2019-11-11 11:00:00 7.7 0 Calma 8 Oeste 0 -- -- 83
2019-11-11 10:00:00 6.9 3 Oeste 7 Sudeste 0 -- -- 85
2019-11-11 09:00:00 6.1 4 Sudeste 8 Sudeste 0 -- -- 86
2019-11-11 08:00:00 5.7 0 Calma 4 Oeste 0 -- -- 86
2019-11-11 07:00:00 5.8 0 Calma 8 Sur 0 -- -- 84
2019-11-11 06:00:00 5.6 2 Sur 7 Oeste 0 -- -- 85
2019-11-11 05:00:00 6.1 3 Noroeste 6 Noroeste 0 -- -- 81
2019-11-11 04:00:00 6.2 0 Calma 9 Noroeste 0 -- -- 80
2019-11-11 03:00:00 6.7 5 Oeste 9 Oeste 0 -- -- 79
2019-11-11 02:00:00 6.5 4 Oeste 7 Oeste 0 -- -- 79
2019-11-11 01:00:00 6.8 0 Calma 22 Noroeste 0 -- -- 76
2019-11-11 00:00:00 7.9 10 Noroeste 19 Norte 0 -- -- 72